This is the latest recevied weather packets stored in our database for station/object iw0uwf-4. If no packets are shown the sender has not sent any weather packets the latest 1 day(s).
| Time | Temp. | Humidity | Pressure | Rain* | Wind** | Luminosity | Snow |
|---|---|---|---|---|---|---|---|
| 1778012585 | 15.56° C | 86% | 1005.6 hPa | 0 mm | 0.45 m/s, 209° | 0 W/m² | - |
| 1778012524 | 15.56° C | 86% | 1005.6 hPa | 0 mm | 0 m/s | 0 W/m² | - |
| 1778012464 | 15.56° C | 86% | 1005.6 hPa | 0 mm | 0.45 m/s, 204° | 0 W/m² | - |
| 1778012223 | 15.56° C | 86% | 1005.7 hPa | 0 mm | 0.45 m/s, 207° | 0 W/m² | - |
| 1778012163 | 15.56° C | 86% | 1005.7 hPa | 0 mm | 0.45 m/s, 220° | 0 W/m² | - |
| 1778012104 | 15.56° C | 86% | 1005.6 hPa | 0 mm | 0.45 m/s, 229° | 0 W/m² | - |
| 1778012044 | 15.56° C | 86% | 1005.7 hPa | 0 mm | 0.89 m/s, 236° | 0 W/m² | - |
| 1778011984 | 15.56° C | 86% | 1005.5 hPa | 0 mm | 0.89 m/s, 243° | 0 W/m² | - |
| 1778011927 | 15.56° C | 86% | 1005.7 hPa | 0 mm | 0.89 m/s, 250° | 0 W/m² | - |
| 1778011864 | 15.56° C | 86% | 1005.6 hPa | 0 mm | 0.89 m/s, 252° | 0 W/m² | - |
| 1778011804 | 15.56° C | 86% | 1005.6 hPa | 0 mm | 0.89 m/s, 242° | 0 W/m² | - |
| 1778011745 | 15.56° C | 86% | 1005.8 hPa | 0 mm | 1.34 m/s, 232° | 0 W/m² | - |
| 1778011684 | 15.56° C | 86% | 1005.8 hPa | 0 mm | 1.34 m/s, 234° | 0 W/m² | - |
| 1778011624 | 15.56° C | 86% | 1005.6 hPa | 0 mm | 1.34 m/s, 232° | 0 W/m² | - |
| 1778011564 | 15.56° C | 86% | 1005.7 hPa | 0 mm | 1.79 m/s, 233° | 0 W/m² | - |
| 1778011505 | 15.56° C | 86% | 1005.6 hPa | 0 mm | 1.79 m/s, 233° | 0 W/m² | - |
| 1778011444 | 15.56° C | 86% | 1005.7 hPa | 0 mm | 1.79 m/s, 230° | 0 W/m² | - |
| 1778011385 | 15.56° C | 86% | 1005.6 hPa | 0 mm | 1.79 m/s, 225° | 0 W/m² | - |
| 1778011324 | 15.56° C | 86% | 1005.6 hPa | 0 mm | 1.79 m/s, 221° | 0 W/m² | - |
| 1778011264 | 15.56° C | 86% | 1005.7 hPa | 0 mm | 1.79 m/s, 216° | 0 W/m² | - |
| 1778011204 | 15.56° C | 86% | 1005.7 hPa | 0 mm | 1.79 m/s, 218° | 0 W/m² | - |
| 1778011144 | 15.56° C | 86% | 1005.7 hPa | 0 mm | 1.34 m/s, 223° | 0 W/m² | - |
| 1778011084 | 15.56° C | 86% | 1005.7 hPa | 0 mm | 1.34 m/s, 223° | 0 W/m² | - |
| 1778011024 | 15.56° C | 85% | 1005.6 hPa | 0 mm | 1.34 m/s, 225° | 0 W/m² | - |
| 1778010963 | 15.56° C | 85% | 1005.6 hPa | 0 mm | 0.89 m/s, 222° | 0 W/m² | - |
* Rain latest hour (hover to see other rain measurements)
** Current wind speed in m/s (hover to see current wind gust speed)